Terminal Aerodrome Forecast
Issued by NWS

Home | Current Version | Previous Version | Text Only | Print | Product List | Glossary Off
Versions: 1 2 3 4 5 6 7 8 9 10 11 12 13 14 15 16 17 18 19 20 21 22 23 24 25 26 27 28 29

000
FTUS43 KABR 181800 AAA
TAFATY
TAF AMD
KATY 181854Z 1819/1918 17009KT P6SM BKN009
     FM182000 17009KT P6SM BKN009 OVC015
     FM190000 17006KT 4SM BR OVC007=

USA.gov is the U.S. government's official web portal to all federal, state and local government web resources and services.